Weather History for Crosby, ND

Change the Weather History Date:

Saturday, February 23, 2013

  Actual Average (KISN) Record (KISN)
Temperature  
Mean Temperature 24 °F 20 °F  
Max Temperature 32 °F 30 °F 58 °F (1958)
Min Temperature 15 °F 9 °F -28 °F (2003)
Degree Days  
Heating Degree Days 42 45  
Month to date heating degree days 1126  
Since 1 July heating degree days 6547  
Cooling Degree Days 0 0  
Month to date cooling degree days 0  
Year to date cooling degree days 0  
Moisture  
Dew Point 19 °F    
Average Humidity 81    
Maximum Humidity 93    
Minimum Humidity 64    
Precipitation  
Precipitation 0.00 in 0.02 in 0.33 in (1948)
Month to date precipitation 0.31  
Year to date precipitation 0.90  
Sea Level Pressure  
Sea Level Pressure 29.63 in    
Wind  
Wind Speed 13 mph (SSW)    
Max Wind Speed 18 mph    
Max Gust Speed 23 mph    
Visibility 10 miles    
Events      
T = Trace of Precipitation, MM = Missing Value Source: NWS Daily Summary

Daily Weather History Graph

Daily Weather History Graph

Search for Another Location

Airport:

Trip Planner

Search our weather history database for the weather conditions in past years. The results will help you decide how hot, cold, wet, or windy it might be!

Date:

Astronomy

Feb. 23, 2013 Rise Set
Actual Time 7:46 AM CST 6:27 PM CST
Civil Twilight 7:14 AM CST 6:59 PM CST
Nautical Twilight 6:37 AM CST 7:36 PM CST
Astronomical Twilight 6:01 AM CST 8:12 PM CST
Moon 4:35 PM CST (2/23) 6:16 AM CST (2/23)
Length of Visible Light 11h 45m
Length of Day
10h 41m
Waxing Gibbous, 95% of the Moon is Illuminated
Feb 23
Waxing Gibbous
Feb 25
Full
Mar 4
Last Quarter
Mar 11
New
Mar 19
First Quarter

Hourly Weather History & Observations

Time (CST) Temp. Windchill Dew Point Humidity Pressure Visibility Wind Dir Wind Speed Gust Speed Precip Events Conditions
12:15 AM 17.6 °F 3.7 °F 14.0 °F 86% 29.67 in 10.0 mi SSW 13.8 mph - N/A   Clear
12:35 AM 15.8 °F 2.1 °F 12.2 °F 86% 29.67 in 10.0 mi SSW 12.7 mph - N/A   Clear
12:55 AM 15.8 °F 2.1 °F 12.2 °F 86% 29.66 in 10.0 mi South 12.7 mph - N/A   Clear
1:15 AM 15.8 °F 1.4 °F 12.2 °F 86% 29.65 in 10.0 mi South 13.8 mph - N/A   Clear
1:35 AM 15.8 °F 1.4 °F 12.2 °F 86% 29.65 in 10.0 mi South 13.8 mph - N/A   Clear
1:55 AM 15.8 °F 2.1 °F 12.2 °F 86% 29.65 in 10.0 mi South 12.7 mph - N/A   Clear
2:15 AM 15.8 °F 0.9 °F 14.0 °F 93% 29.64 in 10.0 mi SSW 15.0 mph - N/A   Clear
2:35 AM 15.8 °F 1.4 °F 14.0 °F 93% 29.63 in 10.0 mi South 13.8 mph - N/A   Clear
2:55 AM 15.8 °F 1.4 °F 14.0 °F 93% 29.63 in 10.0 mi SSW 13.8 mph - N/A   Clear
3:15 AM 15.8 °F 2.1 °F 12.2 °F 86% 29.62 in 10.0 mi South 12.7 mph - N/A   Clear
3:35 AM 15.8 °F 2.1 °F 12.2 °F 86% 29.61 in 10.0 mi South 12.7 mph - N/A   Clear
3:55 AM 15.8 °F 2.7 °F 10.4 °F 79% 29.60 in 10.0 mi South 11.5 mph - N/A   Clear
4:15 AM 15.8 °F 0.9 °F 12.2 °F 86% 29.59 in 10.0 mi SSW 15.0 mph - N/A   Clear
4:35 AM 17.6 °F 2.7 °F 12.2 °F 79% 29.59 in 10.0 mi South 16.1 mph - N/A   Clear
4:55 AM 17.6 °F 3.2 °F 12.2 °F 79% 29.59 in 10.0 mi SSW 15.0 mph - N/A   Clear
5:15 AM 15.8 °F 1.4 °F 12.2 °F 86% 29.59 in 10.0 mi SSW 13.8 mph - N/A   Clear
5:35 AM 15.8 °F 0.9 °F 12.2 °F 86% 29.59 in 10.0 mi SSW 15.0 mph - N/A   Clear
5:55 AM 17.6 °F 2.7 °F 14.0 °F 86% 29.59 in 10.0 mi SSW 16.1 mph - N/A   Clear
6:15 AM 17.6 °F 3.2 °F 14.0 °F 86% 29.59 in 10.0 mi SSW 15.0 mph - N/A   Clear
6:35 AM 17.6 °F 3.2 °F 14.0 °F 86% 29.58 in 10.0 mi South 15.0 mph - N/A   Partly Cloudy
6:55 AM 17.6 °F 3.2 °F 12.2 °F 79% 29.58 in 10.0 mi South 15.0 mph - N/A   Mostly Cloudy
7:15 AM 17.6 °F 3.7 °F 14.0 °F 86% 29.58 in 10.0 mi South 13.8 mph - N/A   Partly Cloudy
7:35 AM 19.4 °F 5.0 °F 14.0 °F 80% 29.57 in 10.0 mi SSW 16.1 mph - N/A   Scattered Clouds
7:55 AM 19.4 °F 5.5 °F 15.8 °F 86% 29.57 in 10.0 mi South 15.0 mph - N/A   Mostly Cloudy
8:15 AM 21.2 °F 7.8 °F 15.8 °F 80% 29.57 in 10.0 mi SSW 15.0 mph - N/A   Mostly Cloudy
8:35 AM 21.2 °F 6.4 °F 15.8 °F 80% 29.57 in 10.0 mi SSW 18.4 mph - N/A   Partly Cloudy
8:55 AM 23.0 °F 8.7 °F 15.8 °F 74% 29.57 in 10.0 mi SSW 18.4 mph - N/A   Partly Cloudy
9:15 AM 23.0 °F 10.1 °F 15.8 °F 74% 29.57 in 10.0 mi South 15.0 mph - N/A   Clear
9:35 AM 23.0 °F 10.1 °F 15.8 °F 74% 29.57 in 10.0 mi South 15.0 mph - N/A   Partly Cloudy
9:55 AM 23.0 °F 11.1 °F 15.8 °F 74% 29.57 in 10.0 mi SSW 12.7 mph - N/A   Scattered Clouds
10:15 AM 24.8 °F 12.4 °F 17.6 °F 74% 29.57 in 10.0 mi South 15.0 mph - N/A   Mostly Cloudy
10:35 AM 26.6 °F 13.8 °F 19.4 °F 74% 29.57 in 10.0 mi SSW 17.3 mph - N/A   Mostly Cloudy
10:55 AM 26.6 °F 14.7 °F 19.4 °F 74% 29.58 in 10.0 mi SSW 15.0 mph - N/A   Scattered Clouds
11:15 AM 26.6 °F 18.2 °F 19.4 °F 74% 29.59 in 10.0 mi SSW 8.1 mph - N/A   Partly Cloudy
11:35 AM 28.4 °F 18.5 °F 21.2 °F 74% 29.58 in 10.0 mi SSW 11.5 mph - N/A   Scattered Clouds
11:55 AM 28.4 °F 17.0 °F 21.2 °F 74% 29.58 in 10.0 mi South 15.0 mph - N/A   Mostly Cloudy
12:15 PM 30.2 °F 19.3 °F 21.2 °F 69% 29.58 in 10.0 mi South 15.0 mph - N/A   Mostly Cloudy
12:35 PM 30.2 °F 18.1 °F 21.2 °F 69% 29.58 in 10.0 mi South 18.4 mph 23.0 mph N/A   Overcast
12:55 PM 32.0 °F 20.8 °F 21.2 °F 64% 29.58 in 10.0 mi South 17.3 mph - N/A   Mostly Cloudy
1:15 PM 32.0 °F 21.6 °F 23.0 °F 69% 29.58 in 10.0 mi SSW 15.0 mph - N/A   Mostly Cloudy
1:35 PM 32.0 °F 22.5 °F 23.0 °F 69% 29.59 in 10.0 mi South 12.7 mph - N/A   Partly Cloudy
1:55 PM 32.0 °F 22.1 °F 23.0 °F 69% 29.59 in 10.0 mi South 13.8 mph - N/A   Partly Cloudy
2:15 PM 32.0 °F 22.5 °F 23.0 °F 69% 29.60 in 10.0 mi SSW 12.7 mph - N/A   Partly Cloudy
2:35 PM 32.0 °F 24.2 °F 24.8 °F 75% 29.60 in 10.0 mi SSW 9.2 mph - N/A   Partly Cloudy
2:55 PM 32.0 °F 23.6 °F 24.8 °F 75% 29.60 in 10.0 mi SSW 10.4 mph - N/A   Clear
3:15 PM 32.0 °F 24.2 °F 26.6 °F 80% 29.60 in 10.0 mi South 9.2 mph - N/A   Clear
3:35 PM 32.0 °F 23.0 °F 26.6 °F 80% 29.60 in 10.0 mi South 11.5 mph - N/A   Clear
3:55 PM 32.0 °F 23.6 °F 26.6 °F 80% 29.61 in 10.0 mi SSW 10.4 mph - N/A   Clear
4:15 PM 32.0 °F 23.0 °F 26.6 °F 80% 29.61 in 10.0 mi SSW 11.5 mph - N/A   Clear
4:35 PM 32.0 °F 23.6 °F 26.6 °F 80% 29.62 in 10.0 mi SSW 10.4 mph - N/A   Partly Cloudy
4:55 PM 32.0 °F 24.2 °F 26.6 °F 80% 29.63 in 10.0 mi South 9.2 mph - N/A   Clear
5:15 PM 32.0 °F 24.8 °F 26.6 °F 80% 29.64 in 10.0 mi SSW 8.1 mph - N/A   Clear
5:35 PM 32.0 °F 27.5 °F 26.6 °F 80% 29.64 in 10.0 mi SSW 4.6 mph - N/A   Clear
5:55 PM 32.0 °F 24.2 °F 26.6 °F 80% 29.65 in 10.0 mi SSW 9.2 mph - N/A   Clear
6:15 PM 30.2 °F 22.6 °F 26.6 °F 86% 29.65 in 10.0 mi SSW 8.1 mph - N/A   Clear
6:35 PM 28.4 °F 21.2 °F 24.8 °F 86% 29.66 in 10.0 mi SSW 6.9 mph - N/A   Clear
6:55 PM 28.4 °F 20.4 °F 24.8 °F 86% 29.67 in 10.0 mi SW 8.1 mph - N/A   Clear
7:15 PM 28.4 °F 20.4 °F 23.0 °F 80% 29.67 in 10.0 mi WSW 8.1 mph - N/A   Clear
7:35 PM 28.4 °F 21.2 °F 23.0 °F 80% 29.68 in 10.0 mi WSW 6.9 mph - N/A   Clear
7:55 PM 26.6 °F 17.5 °F 23.0 °F 86% 29.68 in 10.0 mi SW 9.2 mph - N/A   Clear
8:15 PM 26.6 °F 18.2 °F 23.0 °F 86% 29.68 in 10.0 mi WSW 8.1 mph - N/A   Clear
8:35 PM 26.6 °F 16.8 °F 23.0 °F 86% 29.69 in 10.0 mi West 10.4 mph - N/A   Clear
8:55 PM 28.4 °F 18.5 °F 23.0 °F 80% 29.70 in 10.0 mi West 11.5 mph - N/A   Clear
9:15 PM 26.6 °F 16.8 °F 23.0 °F 86% 29.71 in 10.0 mi West 10.4 mph - N/A   Clear
9:35 PM 26.6 °F 16.2 °F 23.0 °F 86% 29.73 in 10.0 mi West 11.5 mph - N/A   Clear
9:55 PM 26.6 °F 18.2 °F 23.0 °F 86% 29.73 in 10.0 mi West 8.1 mph - N/A   Clear
10:35 PM 24.8 °F 15.3 °F 19.4 °F 80% 29.74 in 10.0 mi West 9.2 mph - N/A   Clear
10:55 PM 21.2 °F 11.7 °F 17.6 °F 86% 29.75 in 10.0 mi SW 8.1 mph - N/A   Clear
11:15 PM 23.0 °F 13.9 °F 17.6 °F 80% 29.75 in 10.0 mi SW 8.1 mph - N/A   Clear
11:35 PM 21.2 °F 13.6 °F 17.6 °F 86% 29.75 in 10.0 mi WSW 5.8 mph - N/A   Clear
11:55 PM 17.6 °F 9.3 °F 15.8 °F 93% 29.76 in 10.0 mi WSW 5.8 mph - N/A   Clear